UWE-4 (43880 NORAD) Tracking and Keplerian Element Data

This shows tracking and keplerian element data for the satellite.

Feedback or suggestion? Click here.




ElementValue
Catalog43880
NameUWE-4
Epoch Orbit109
Epoch Day16.81257484
Epoch Year2019
RAAN286.9684
Inclination97.7271
Eccentricity0.0012556
Argument of Perigee169.9676
Mean Anonmoly190.1798
Mean Motion14.96111966
Decay Rate3.38E-06
L11 43880U 18111E 19016.81257484 .00000338 00000-0 35135-4 0 9996
L22 43880 97.7271 286.9684 0012556 169.9676 190.1798 14.96111966 1093

Live tracking and technical data element details for UWE-4 (NORAD 43880). UWE-4 can be tracked NOW for your location showing map with azimuth and elevation plus other details from your city location.

Track the satellite on the map from your city or location and see movement details for azimuth, elevation, latitude, longitude, range, height, and movement on the map or in text.







IsCatalogInMostPopularTable: catalog: 43880, numindb: 15
Update: records affected: 1



GetName: 43880 UWE-4

Hit Count: updated at: Thu, 17 Jan 2019 14:46:17 GMT